[[{"header":{"parameterUnit":"m.s-1","parameterCategory":1,"la1":30.2991,"la2":30.254,"lo1":-89.0895,"lo2":-89.0444,"dy":0.0017,"dx":0.0017,"nx":28,"ny":28,"refTime":"2024-07-24T21:00:00:Z","depth":0,"parameterNumber":2,"parameterNumberName":"U-component_of_WINDS"},"data":[0,0,0,0,0,0,0,0,0,0,0,0,0,0,0,0,0,0,0,0,0,0,0,0,0,0,0,0,0,0,0,0,0,0,0,0,0,0,0,0,0,0,0,0,0,0,0,0,0,0,0,0,0,0,0,0,0,0,0.8032,0.8033,0,0.8169,0.8171,0.8173,0.8242,0.8242,0.8242,0.8242,0.8383,0.8387,0.8391,0,0,0,0,0,0,0,0,0,0,0,0,0,0.7827,0.7831,0.8031,0.8033,0.8035,0.8169,0.8171,0.8173,0.8242,0.8242,0.8242,0.8242,0.8382,0.8387,0.8391,0,0,0,0,0,0,0,0,0,0,0,0,0,0.7935,0.7832,0.8031,0.8086,0.8092,0.8169,0.8171,0.8173,0.8242,0.8242,0.8242,0.8242,0.8381,0.8386,0.8392,0.8425,0,0,0.8409,0.8411,0,0,0,0,0,0,0,0,0.7929,0.7943,0.8076,0.8082,0.8089,0.8189,0.8151,0.8258,0.8242,0.8185,0.8242,0.8242,0.8319,0.8329,0.8355,0.8432,0.8438,0.8409,0.8413,0.8415,0.8417,0,0,0,0,0,0,0,0.7922,0.7937,0.8086,0.8078,0.8086,0.8103,0.8118,0.8171,0.825,0.819,0.8195,0.8211,0.8322,0.8349,0.8359,0.844,0.8409,0.8414,0.8418,0.842,0.8549,0.855,0,0,0,0,0,0,0.7905,0.7931,0.8082,0.809,0.8008,0.8106,0.8124,0.8157,0.8249,0.8264,0.8211,0.8214,0.834,0.8352,0.8364,0.8409,0.8415,0.842,0.8423,0.8549,0.8549,0.855,0,0,0,0,0,0,0.7901,0.7918,0.8076,0.8012,0.8033,0.811,0.8146,0.8159,0.8187,0.8265,0.8279,0.8224,0.834,0.8356,0.8409,0.8415,0.8423,0.8428,0.8549,0.8549,0.855,0.8498,0,0,0,0,0,0,0.7895,0.7916,0.793,0.8012,0.8036,0.8119,0.8147,0.8162,0.8196,0.8201,0.8281,0.8295,0.8342,0.84,0.8415,0.8422,0.8432,0.8549,0.8549,0.8549,0.8499,0.8496,0.8494,0,0,0,0,0,0.7887,0.791,0.793,0.7948,0.8055,0.8119,0.8133,0.8187,0.8196,0.821,0.8261,0.8292,0.8411,0.8405,0.8422,0.8431,0.8549,0.8549,0.8549,0.8501,0.8497,0.8494,0,0,0,0,0,0,0.7827,0.7922,0.7945,0.7995,0.8048,0.8131,0.815,0.8181,0.8233,0.8235,0.83,0.8317,0.8364,0.8403,0.8394,0.8468,0.8483,0.8487,0.8441,0.8438,0.8435,0.8424,0.8437,0,0,0,0,0,0.7819,0.7863,0.7944,0.798,0.8006,0.8073,0.8103,0.814,0.8197,0.822,0.8274,0.8329,0.8379,0.841,0.8461,0.8505,0.8523,0.852,0.8517,0.8514,0.8516,0.8542,0.8541,0.855,0.855,0.855,0,0,0.7804,0.7862,0.7886,0.797,0.8015,0.8059,0.8092,0.8137,0.817,0.8227,0.828,0.8322,0.8387,0.8435,0.846,0.847,0.8518,0.8514,0.8511,0.8516,0.8542,0.8541,0.8541,0.855,0.855,0.855,0,0,0.78,0.7848,0.7883,0.7928,0.7996,0.8041,0.8049,0.8126,0.8156,0.821,0.8254,0.8294,0.8378,0.8423,0.8457,0.8467,0.8498,0.8482,0.8466,0.8491,0.849,0.849,0.8493,0.8493,0.8484,0.8484,0.8484,0,0.7772,0.7841,0.7897,0.794,0.7975,0.8028,0.8064,0.8105,0.8186,0.8209,0.8219,0.8326,0.8374,0.8433,0.8435,0.8461,0.8472,0.8473,0.8485,0.8486,0.8486,0.849,0.8491,0.8481,0.8481,0.8482,0.8482,0,0.7804,0.785,0.787,0.7947,0.7985,0.8024,0.8086,0.8117,0.815,0.8193,0.8247,0.8306,0.8368,0.8385,0.8418,0.8449,0.8453,0.8473,0.849,0.8482,0.8487,0.8489,0.8478,0.8479,0.8479,0.848,0,0,0.7765,0.7872,0.7879,0.7914,0.7993,0.803,0.8071,0.8132,0.8157,0.8211,0.8247,0.8316,0.8335,0.8373,0.8412,0.8433,0.8437,0.8451,0.8453,0.8446,0.8474,0.8458,0.8459,0.8457,0.8458,0.8458,0.8468,0,0.7772,0.7848,0.79,0.7955,0.7999,0.8049,0.8085,0.8137,0.8178,0.822,0.8266,0.8314,0.8336,0.8359,0.8382,0.8431,0.8443,0.8431,0.8491,0.8492,0.8473,0.8461,0.8445,0.8451,0.847,0.8471,0.8471,0,0.7789,0.7841,0.7901,0.7975,0.7995,0.8026,0.8086,0.8126,0.8185,0.8214,0.8255,0.8294,0.8339,0.8351,0.8414,0.8404,0.8432,0.8459,0.8461,0.8469,0.8481,0.8468,0.8455,0.8455,0.8474,0.8474,0.8474,0,0.7755,0.784,0.7887,0.7916,0.8003,0.8023,0.806,0.812,0.8153,0.8205,0.8227,0.8283,0.8314,0.8357,0.8409,0.8414,0.8466,0.8483,0.849,0.8489,0.8499,0.8498,0.849,0.8517,0.8517,0.8517,0.8517,0,0.7757,0.7791,0.7873,0.7901,0.7941,0.8,0.8038,0.8079,0.8131,0.8169,0.8216,0.825,0.8317,0.8359,0.84,0.8445,0.8459,0.8483,0.8493,0.8479,0.8475,0.8498,0.8498,0.8517,0.8517,0.8517,0.8517,0,0.7725,0.7781,0.7835,0.7913,0.7933,0.7959,0.8026,0.8055,0.8098,0.8145,0.8159,0.8227,0.8278,0.8335,0.8406,0.8433,0.8476,0.8491,0.8455,0.8462,0.8466,0.8464,0.8471,0.8475,0.8499,0.8499,0.8498,0,0.7722,0.775,0.7831,0.7859,0.7895,0.794,0.7974,0.8032,0.8065,0.8134,0.8155,0.821,0.8258,0.8338,0.8393,0.8447,0.8464,0.8463,0.8472,0.8456,0.8463,0.8461,0.8464,0.846,0.8459,0.8459,0.8458,0,0.7711,0.7738,0.7785,0.7841,0.788,0.7928,0.7977,0.7997,0.8065,0.81,0.8153,0.819,0.8261,0.8315,0.8376,0.8414,0.8447,0.8454,0.8459,0.8444,0.8422,0.8434,0.8447,0.8454,0.8455,0.8455,0.8455,0.8455,0.7694,0.7721,0.7782,0.7832,0.7875,0.792,0.7951,0.7998,0.8043,0.8106,0.8138,0.8191,0.8249,0.8333,0.837,0.8412,0.8422,0.8429,0.8431,0.8431,0.8427,0.8415,0.8423,0.8423,0.8424,0.8424,0.8424,0,0.7686,0.7727,0.7773,0.784,0.7879,0.7907,0.7963,0.7994,0.804,0.8091,0.8136,0.8197,0.8249,0.8308,0.8364,0.8386,0.8402,0.8398,0.8397,0.8405,0.8415,0.8405,0.8384,0.8384,0.8384,0.8384,0.8384,0.8384,0.7686,0.7732,0.7765,0.7833,0.7874,0.7926,0.7955,0.7996,0.8038,0.8103,0.8147,0.8185,0.8239,0.8299,0.8347,0.8364,0.8382,0.8373,0.8393,0.8401,0.8405,0.8408,0.8399,0.8377,0.8377,0.838,0.838,0.838]},{"header":{"parameterUnit":"m.s-1","parameterCategory":1,"la1":30.2991,"la2":30.254,"lo1":-89.0895,"lo2":-89.0444,"dy":0.0017,"dx":0.0017,"nx":28,"ny":28,"refTime":"2024-07-24T21:00:00:Z","depth":0,"parameterNumber":3,"parameterNumberName":"V-component_of_WINDS"},"data":[0,0,0,0,0,0,0,0,0,0,0,0,0,0,0,0,0,0,0,0,0,0,0,0,0,0,0,0,0,0,0,0,0,0,0,0,0,0,0,0,0,0,0,0,0,0,0,0,0,0,0,0,0,0,0,0,0,0,3.1467,3.1467,0,3.142,3.142,3.1419,3.138,3.138,3.1379,3.1379,3.1327,3.1327,3.1326,0,0,0,0,0,0,0,0,0,0,0,0,0,3.152,3.1519,3.1467,3.1467,3.1466,3.1421,3.142,3.1419,3.138,3.138,3.1379,3.1379,3.1328,3.1327,3.1325,0,0,0,0,0,0,0,0,0,0,0,0,0,3.1487,3.1519,3.1468,3.1441,3.1439,3.1421,3.142,3.1419,3.138,3.138,3.1379,3.1378,3.1328,3.1327,3.1325,3.1329,0,0,3.1321,3.132,0,0,0,0,0,0,0,0,3.1489,3.1485,3.1446,3.1443,3.144,3.1406,3.1419,3.1389,3.138,3.1402,3.1379,3.1378,3.1354,3.135,3.1343,3.1326,3.1324,3.1321,3.132,3.1319,3.1319,0,0,0,0,0,0,0,3.1491,3.1487,3.1449,3.1445,3.1442,3.1431,3.1425,3.1413,3.1382,3.14,3.1397,3.1393,3.1352,3.1344,3.1341,3.1323,3.1321,3.1319,3.1318,3.1318,3.1306,3.1306,0,0,0,0,0,0,3.1498,3.1489,3.145,3.1447,3.1464,3.143,3.1424,3.1417,3.1382,3.1376,3.1393,3.1391,3.1347,3.1343,3.1339,3.134,3.1319,3.1318,3.1317,3.1305,3.1306,3.1307,0,0,0,0,0,0,3.1499,3.1495,3.1452,3.1467,3.1461,3.143,3.1422,3.1417,3.1409,3.1377,3.137,3.1391,3.1346,3.1341,3.1331,3.1338,3.1317,3.1316,3.1305,3.1305,3.1306,3.1343,0,0,0,0,0,0,3.1501,3.1496,3.1498,3.1468,3.1461,3.1447,3.1423,3.1416,3.1407,3.1403,3.1373,3.1367,3.1345,3.1334,3.133,3.1335,3.1315,3.1304,3.1305,3.1306,3.1341,3.1345,3.1348,0,0,0,0,0,3.1503,3.1509,3.1498,3.1493,3.1462,3.1447,3.1443,3.1418,3.1407,3.1408,3.1388,3.1368,3.1338,3.1333,3.1329,3.1334,3.1303,3.1305,3.1306,3.1339,3.1344,3.1348,0,0,0,0,0,0,3.154,3.1505,3.1492,3.1489,3.1471,3.1441,3.1441,3.1424,3.1409,3.1406,3.1375,3.1369,3.1362,3.1347,3.1342,3.1334,3.1318,3.1318,3.1345,3.1349,3.1352,3.1356,3.1313,0,0,0,0,0,3.1548,3.1539,3.1509,3.1509,3.1501,3.1473,3.1465,3.1448,3.1428,3.142,3.1398,3.1379,3.1364,3.1356,3.1341,3.1338,3.133,3.1339,3.1343,3.1346,3.1346,3.1343,3.1346,3.1311,3.1311,3.1311,0,0,3.1563,3.1543,3.154,3.1516,3.15,3.1491,3.1467,3.1458,3.145,3.1418,3.1408,3.1391,3.1367,3.1361,3.1357,3.1348,3.1354,3.1347,3.135,3.1349,3.1344,3.1348,3.1351,3.1312,3.1311,3.1311,0,0,3.1588,3.1572,3.157,3.1555,3.1532,3.1513,3.1513,3.1484,3.1472,3.1462,3.1437,3.1427,3.1403,3.1387,3.1376,3.1393,3.1374,3.1389,3.1408,3.1404,3.1407,3.1409,3.1415,3.1417,3.139,3.139,3.139,0,3.161,3.1596,3.1571,3.1564,3.1554,3.1525,3.1522,3.1508,3.1481,3.1474,3.1464,3.1434,3.1415,3.1404,3.1409,3.1401,3.1398,3.1392,3.1409,3.1411,3.1413,3.1418,3.142,3.1392,3.1391,3.1391,3.1391,0,3.1625,3.1615,3.1616,3.1592,3.1582,3.1577,3.155,3.1542,3.1525,3.1507,3.1496,3.1473,3.1453,3.1448,3.1432,3.1435,3.143,3.1415,3.1398,3.1419,3.1422,3.1424,3.1394,3.1394,3.1393,3.1393,0,0,3.1671,3.1632,3.1633,3.1621,3.1594,3.1585,3.1578,3.156,3.1553,3.1535,3.1528,3.1508,3.1494,3.1482,3.1462,3.146,3.1474,3.1445,3.1444,3.1451,3.1475,3.1486,3.1488,3.1461,3.1462,3.1462,3.1476,0,3.169,3.1678,3.1655,3.1649,3.1639,3.1611,3.1605,3.1587,3.1569,3.1557,3.1537,3.1524,3.1507,3.1499,3.1495,3.1473,3.1478,3.1472,3.1453,3.1453,3.146,3.1491,3.1502,3.1517,3.1478,3.1478,3.1478,0,3.1712,3.1696,3.169,3.1662,3.1657,3.1652,3.1633,3.1622,3.16,3.1587,3.1573,3.1552,3.1542,3.1527,3.1511,3.1507,3.1498,3.1486,3.1486,3.1483,3.1467,3.1488,3.1522,3.1524,3.1481,3.148,3.148,0,3.1746,3.1723,3.1716,3.1707,3.1675,3.1672,3.1658,3.1635,3.1625,3.1607,3.16,3.1581,3.1571,3.1556,3.153,3.1521,3.1517,3.1499,3.1505,3.1506,3.1505,3.1506,3.1538,3.15,3.15,3.15,3.15,0,3.177,3.1767,3.1731,3.1727,3.1722,3.1695,3.1691,3.1674,3.1654,3.1645,3.1619,3.1611,3.1577,3.1564,3.1544,3.1534,3.1529,3.1518,3.1512,3.152,3.1521,3.1513,3.1512,3.15,3.15,3.15,3.15,0,3.1807,3.1783,3.1774,3.1744,3.1736,3.1734,3.1708,3.1702,3.1683,3.1671,3.1667,3.1636,3.162,3.1593,3.1568,3.1554,3.1548,3.1539,3.1556,3.1553,3.156,3.1559,3.1587,3.1589,3.1551,3.1551,3.1552,0,3.1824,3.1821,3.1791,3.1784,3.1771,3.176,3.1749,3.1722,3.1712,3.1686,3.1683,3.1665,3.1649,3.1624,3.1598,3.1579,3.1569,3.158,3.1566,3.1574,3.1569,3.1569,3.1568,3.1584,3.1584,3.1585,3.1585,0,3.1856,3.1844,3.1831,3.1814,3.1803,3.1787,3.1771,3.1766,3.1734,3.1724,3.1708,3.1695,3.1671,3.1652,3.163,3.1613,3.1593,3.159,3.159,3.1598,3.1608,3.1602,3.1565,3.1589,3.1589,3.1588,3.1588,3.1588,3.1883,3.1879,3.1858,3.1844,3.1828,3.1813,3.1806,3.1786,3.1772,3.1751,3.1735,3.172,3.1696,3.1663,3.1648,3.1635,3.1626,3.1626,3.1626,3.1627,3.1629,3.161,3.163,3.163,3.163,3.163,3.163,0,3.1914,3.1899,3.1886,3.1864,3.1853,3.1836,3.1816,3.1807,3.1795,3.1775,3.176,3.1741,3.1723,3.1696,3.1676,3.167,3.166,3.1665,3.1665,3.1662,3.1639,3.1641,3.1674,3.1674,3.1674,3.1674,3.1674,3.1674,3.1929,3.1921,3.1907,3.189,3.1874,3.186,3.185,3.1836,3.182,3.18,3.1785,3.1768,3.1745,3.1723,3.1705,3.1698,3.1691,3.1699,3.1689,3.1668,3.1664,3.166,3.1661,3.1698,3.1698,3.1713,3.1713,3.1713]}]]